Tracking 18980 objects as of 22-Feb-2018
HD Live streaming from Space Station
objects crossing your sky now

FENGYUN 1C DEB

Track FENGYUN 1C DEB now!
10-day predictions


NORAD ID: 29877
Int'l Code: 1999-025FX
Perigee: 797.5 km
Apogee: 868.9 km
Inclination: 98.8 °
Period: 101.4 minutes
Semi major axis: 7204 km
RCS: 0.045 m2 (small)
Launch date: May 10, 1999
Source: People's Republic of China (PRC)
Launch site: Taiyaun Space Center, China (TSC)

Note: This is SATELLITE DEBRIS
aabbcc
Your satellite tracking list
Your tracking list is empty




NASA's NSSDC Master Catalog

Two Line Element Set (TLE):
1 29877U 99025FX  18052.66203887 +.00000174 +00000-0 +10162-3 0  9999
2 29877 098.7615 087.5344 0049541 187.8895 293.7442 14.19790802574773
Source of the keplerian elements: AFSPC